San Luis, CO (81152)

11:31 PM MST on December 03, 2016 (GMT -0700)
Amalia | | Change Station

Elev 8081 ft 36.95 °N, 105.47 °W | Updated 13 seconds ago

Scattered Clouds
Scattered Clouds
3.4 °F
Feels Like 3 °F
N
2.0
Wind Variable Wind from WSW

Today
High -- | Low -- °F
--% Chance of Precip.
Yesterday
High -- | Low -- °F
Precip. -- in
Pressure 30.11 in
Visibility 10.0 miles
Clouds Scattered Clouds 200 ft
Windchill 3 °F
Dew Point 3 °F
Humidity 98%
Rainfall 0.00 in
Snow Depth Not available.
6:59 AM 4:44 PM
Waxing Crescent, 20% visible
SPECI KALS 040606Z AUTO 22004KT 10SM SCT002 M18/M19 A3011 RMK AO2 T11781194
Pressure 30.11 in
Visibility 10.0 miles
Clouds Scattered Clouds 200 ft
Windchill 3 °F
Dew Point 3 °F
Humidity 98%
Rainfall 0.00 in
Snow Depth Not available.
6:59 AM 4:44 PM
Waxing Crescent, 20% visible
SPECI KALS 040606Z AUTO 22004KT 10SM SCT002 M18/M19 A3011 RMK AO2 T11781194

10-Day Weather Forecast

Almanac

Astronomy

Dec. 03, 2016 Rise Set
Actual Time
Civil Twilight
Nautical Twilight
Astronomical Twilight
Moon
Length of Visible Light
Length of Day
Tomorrow will be .
, % of the Moon is Illuminated

Today's Extremes

State Highs State Lows

Community

WunderPhotos

Upload Photos

1,955,588 photos uploaded!

WunderBlog® & News

Nearby

Air Quality

  Air Quality AQ Index Pollutant
Not available.

Snow Depth

Station Depth Elevation

Earthquake Activity

City Distance Mag. Time & Date
Minimum magnitude displayed is 2.5.

Coastal Water Temperatures

Place Temperature

Stations

Nearby Weather Stations

Station Location Temp. Windchill Dew Point Humidity Wind Precip. Elev Updated Type
                   

Watches & Warnings

There are currently no watches in effect.